This demonstration page uses our WeatherBlox Daily Observations layout. Learn more.

Left ArrowRight Arrow

44.31136, -96.79839

Hourly Observations for September 25, 2021

Temp ( °F °C ) Dew Point ( °F °C ) Humidity (%) Winds ( mph kmh ) Pressure ( in mb ) Visibility ( mi km ) Precip ( " mm )
12:56 am 00:56 Clear 41 5 34 1.1 76 76 WSW 5 7 30.10 1019 10 16 0.00 0.00
1:56 am 01:56 Clear 42 5.6 33 0.6 71 71 WSW 7 11 30.10 1019 10 16 0.00 0.00
2:56 am 02:56 Clear 42 5.6 34 1.1 73 73 WSW 6 9 30.09 1019 10 16 0.00 0.00
3:56 am 03:56 Clear 41 5 31 -0.6 67 67 WSW 5 7 30.09 1019 10 16 0.00 0.00
4:56 am 04:56 Clear 40 4.4 31 -0.6 70 70 W 3 6 30.10 1019 10 16 0.00 0.00
5:56 am 05:56 Clear 40 4.4 31 -0.6 70 70 Calm 30.10 1019 10 16 0.00 0.00
6:56 am 06:56 Clear 38 3.3 31 -0.6 76 76 S 3 6 30.10 1019 10 16 0.00 0.00
7:56 am 07:56 Hazy 39 3.9 31 -0.6 73 73 ESE 3 6 30.10 1019 3 4 0.00 0.00
8:05 am 08:05 Hazy 37 3 32 0 81 81 SSE 5 7 30.10 1019 2 2 0.00 0.00
8:24 am 08:24 Mostly Sunny 39 4 34 1 81 81 S 3 6 30.09 1019 10 16 0.00 0.00
8:56 am 08:56 Sunny 46 7.8 35 1.7 66 66 S 3 6 30.10 1019 10 16 0.00 0.00
9:56 am 09:56 Sunny 54 12.2 40 4.4 59 59 S 3 6 30.09 1019 10 16 0.00 0.00
10:56 am 10:56 Sunny 61 16.1 35 1.7 38 38 WSW 10 17 30.06 1018 10 16 0.00 0.00
11:56 am 11:56 Sunny 65 18.3 32 0 29 29 WSW 9 15 30.04 1017 10 16 0.00 0.00
12:56 pm 12:56 Sunny 69 20.6 34 1.1 27 27 W 12 19 30.02 1017 10 16 0.00 0.00
1:56 pm 13:56 Sunny 72 22.2 37 2.8 28 28 W 10 17 29.99 1016 10 16 0.00 0.00
2:56 pm 14:56 Sunny 74 23.3 43 6.1 33 33 W 14 22 29.95 1014 10 16 0.00 0.00
3:56 pm 15:56 Sunny 74 23.3 44 6.7 34 34 W 8 13 29.92 1013 10 16 0.00 0.00
4:56 pm 16:56 Sunny 75 23.9 44 6.7 33 33 WSW 7 11 29.90 1013 10 16 0.00 0.00
5:56 pm 17:56 Sunny 74 23.3 49 9.4 41 41 NW 5 7 29.90 1012 10 16 0.00 0.00
6:56 pm 18:56 Sunny 73 22.8 45 7.2 37 37 Calm 29.89 1012 10 16 0.00 0.00
7:56 pm 19:56 Clear 63 17.2 48 8.9 58 58 NE 5 7 29.91 1013 10 16 0.00 0.00
8:56 pm 20:56 Clear 62 16.7 46 7.8 56 56 SE 9 15 29.90 1012 10 16 0.00 0.00
9:56 pm 21:56 Clear 59 15 47 8.3 64 64 Calm 29.89 1012 10 16 0.00 0.00
10:56 pm 22:56 Clear 55 12.8 46 7.8 72 72 ESE 3 6 29.88 1012 10 16 0.00 0.00
11:56 pm 23:56 Clear 54 12.2 46 7.8 75 75 Calm 29.87 1012 10 16 0.00 0.00

Powered by AerisWeather